FENGYUN 1C DEB, 43359

Orbit data source: Space-Track

FENGYUN 1C DEB, 43359 is space debris in SSO originally from a launch on Mon, 10 May 1999 UTC launched from the Taiyaun Space Center, China (TSC). Fengyun 1C debris stems from the Chinese weather satellite Fengyun-1C, which was intentionally destroyed by a Chinese anti-satellite missile in 2007. This event dramatically increased the amount of space debris, with thousands of trackable fragments posing hazards to satellites and human spaceflight. The Fengyun 1C debris cloud has become a focal point in discussions about space sustainability and the need for international regulations to prevent the creation of new debris.

Loading next visibility...
Identifier
43359, 1999-025EYQ
Orbit
SSO
Country
Flag of CNCN / PRC
Related business
Manufacturer
Unknown
Mission
Spacecraft
Bus & Motor
Unknown
Mass
Unknown
Launch date (UTC)
1999-05-10 (26 years ago)
Launch vehicle
Unknown
Launch site
Taiyaun Space Center, China (TSC)
Object type
Payload
Rocket body
Debris
Shape & HBR
Unknown
Radar Cross Section
Small (<0.1 m²)

Expand to show TLE details & history
Last TLE update: 2 days ago

TLE from 2 days ago
0 FENGYUN 1C DEB
1 43359U 99025EYQ 25259.16859926  .00004268  00000-0  19000-2 0  9990
2 43359  99.0562 336.7646 0076268 263.6977  95.5509 14.21865189465048
Epoch: 2025-09-16T04:02Z
TLE epoch observation values (Epoch: 2025-09-16T04:02:46.976Z)
Latitude
0.00004°
Longitude
-79.29391°
Altitude
827.683 km
Speed
7.436 km/s
True Right ascension
22h 27m 03s
True Declination
0° 00' 00"
Sunlit
Object was in full shadow at epoch
Visualization orbit readout
Latitude
Unknown
Longitude
Unknown
Altitude
Unknown
Speed
Unknown
Apparent Right ascension
Unknown
Apparent Declination
Unknown
Sunlit
N/A
Visualization observer readout
Local Sidereal Time
13:23:09
Azimuth
Unknown
Elevation
Unknown
Doppler factor
Unknown
Orbital elements
Apogee altitude
871.095 km
Perigee altitude
761.355 km
Semi-major axis
7,194.362 km
Eccentricity
0.00763
Inclination
99.0562°
RAAN
336.7646°
Arg. of periapsis
263.6977°
True anomaly
96.41993°
Mean anomaly
95.5509°
Eccentric anomaly
95.9855°
Mean motion
3.55676 °/min
Orbital period
101.22 mins
BSTAR
0.0019
Loading maneuver chart data...
Computing Atmospheric mass density...
Loading historical data...
Loading historical data...
Loading historical data...
Loading historical data...
Loading historical data...
Loading historical data...
Loading historical data...

Documentation

Showing up to 5 results
|